User: anonymous   Login
Location: Unspecified
(0.0000°N, 0.0000°E)
Time: 16:07:01
(UTC+00:00)
Language:

TYVAK-61C - Orbit

View from above orbital plane
View from above orbital plane
View from above satellite
View from above satellite

Ground track
Ground track

The orbit data is extracted from the following two-line orbital elements,

1 43144U 18004AK  21333.64786681  .00007182  00000-0  25321-3 0  9991
2 43144  97.4025  50.0360 0006647   5.1735 354.9572 15.29556540216076
Epoch (UTC): 29 November 2021 15:32:55
Eccentricity: 0.0006647
inclination: 97.4025°
perigee height: 472 km
apogee height: 482 km
right ascension of ascending node: 50.0360°
argument of perigee: 5.1735°
revolutions per day: 15.29556540
mean anomaly at epoch: 354.9572°
orbit number at epoch: 21607

The dashed part of the orbit path shows where the satellite is in the earth's shadow,  

DLR